Weather Roundup
Issued by NWS

Home | Current Version | Previous Version | Text Only | Print | Product List | Glossary On
Versions: 1 2 3 4 5 6 7 8 9 10 11 12 13 14 15 16 17 18 19 20 21 22 23 24 25 26 27 28 29 30 31 32 33 34 35 36 37 38 39 40 41 42 43 44 45 46 47 48 49 50
147
NZUS93 KARX 231010
HRRWXR

CURRENT HOURLY OBSERVATIONS ACROSS
MUCH OF THE UPPER MISSISSIPPI VALLEY
NATIONAL WEATHER SERVICE LA CROSSE WI
400 AM CST THU NOV 23 2017


...SOUTHEAST MINNESOTA...


CITY           SKY/WX    TMP DP  RH WIND       PRES   REMARKS
ROCHESTER      CLOUDY    23  17  78 S6        29.91S WCI  16
ROCHESTER/MAYO FAIR      29  18  65 S3        29.92F
WINONA           N/A     30  21  69 CALM      29.96S
AUSTIN         CLOUDY    25  18  74 S3        29.92S
ALBERT LEA     CLOUDY    25  18  74 CALM      29.91S
DODGE CENTER   CLOUDY    25  18  74 SW7       29.91S WCI  17
PRESTON        CLOUDY    27  17  66 SW7       29.93R WCI  19
OWATONNA       CLOUDY    25  18  74 CALM      29.90F
FARIBAULT      CLOUDY    23  18  80 CALM      29.92F
$$

...ELSEWHERE IN MINNESOTA...


CITY           SKY/WX    TMP DP  RH WIND       PRES   REMARKS
MINNEAPOLIS    MOCLDY    26  19  74 CALM      29.93F
INTNL FALLS    PTCLDY    16  14  92 S3        29.88F
DULUTH         CLOUDY    20  18  92 W3        29.87F
RED WING       CLOUDY    25  16  68 CALM      29.93F
REDWOOD FALLS  CLOUDY    27  19  72 NW8       29.94S WCI  19
MANKATO        CLOUDY    27  19  72 W3        29.93S
WORTHINGTON    CLOUDY    27  21  78 NW7       29.95S WCI  19
FAIRMONT       CLOUDY    28  21  75 W9        29.93S WCI  19
$$

...SOUTHWEST WISCONSIN...


CITY           SKY/WX    TMP DP  RH WIND       PRES   REMARKS
LA CROSSE      CLOUDY    30  19  63 S6        29.96F WCI  24
PRAIRIE DU CHI PTCLDY    32  17  53 S3        29.98F
BOSCOBEL       CLEAR     31  17  56 S3        29.99S
LONE ROCK      PTCLDY    32  19  58 VRB5      29.99S WCI  27
PLATTEVILLE    CLEAR     28  21  74 S8        29.98F WCI  20
FORT MC COY    CLOUDY    27  19  74 CALM      29.97S
CAMP DOUGLAS   MOCLDY    31  17  55 S3        29.96S
MAUSTON-NEW LI CLOUDY    32  17  55 CALM      29.96F
VIROQUA        FAIR      27  19  72 S6        29.94S WCI  21
WIS DELLS      CLOUDY    32  17  53 CALM      29.97R
$$

...ELSEWHERE IN WISCONSIN...


CITY           SKY/WX    TMP DP  RH WIND       PRES   REMARKS
MILWAUKEE      CLOUDY    33  21  61 SW8       30.02F WCI  26
MADISON        CLOUDY    32  18  56 SW6       29.98F WCI  26
GREEN BAY      CLOUDY    31  25  78 SW5       30.00F WCI  26
EAU CLAIRE     CLOUDY    19  14  81 NE3       29.92F
BLACK RVR FLS  FAIR      18  14  82 CALM      29.95F
MEDFORD        CLEAR     20  17  87 CALM      29.91F
WAUSAU         CLOUDY    25  19  78 SE3       29.93F
WIS RAPIDS     CLOUDY    28  18  66 CALM      29.96F
MARSHFIELD     CLOUDY    23  16  74 S3        29.92F
RICE LAKE      CLOUDY    26  20  79 CALM      29.94F
$$

...NORTHEAST IOWA...


CITY           SKY/WX    TMP DP  RH WIND       PRES   REMARKS
WATERLOO       CLOUDY    27  17  66 S6        29.95F WCI  20
DUBUQUE        CLEAR     27  19  72 S12       29.97F WCI  17
DECORAH        CLOUDY    28  18  64 S5        29.93S WCI  23
MASON CITY     CLOUDY    26  17  68 SW3       29.94S
CHARLES CITY   CLOUDY    25  18  74 S8        29.94S WCI  16
OELWEIN        CLOUDY    27  19  74 S8        29.95F WCI  18
$$

...ELSEWHERE IN IOWA...


CITY           SKY/WX    TMP DP  RH WIND       PRES   REMARKS
DES MOINES     CLOUDY    32  20  61 SW8       29.97F WCI  25
IOWA CITY      CLEAR     32  19  58 S7        30.01F WCI  26
FORT DODGE     CLOUDY    27  19  72 SW3       29.94S
MARSHALLTOWN   CLOUDY    30  19  63 SW7       29.95F WCI  23
CEDAR RAPIDS   CLEAR     29  19  66 S9        29.97F WCI  20
$$

...NORTHERN ILLINOIS...


CITY           SKY/WX    TMP DP  RH WIND       PRES   REMARKS
CHICAGO-OHARE  CLOUDY    33  19  56 S13       30.06F WCI  24
CHICAGO-MIDWAY CLOUDY    33  20  58 SW10      30.08F WCI  25
MOLINE         CLOUDY    34  18  52 S9        30.01F WCI  27
ROCKFORD       CLOUDY    32  24  72 S10       30.05F WCI  24
PEORIA         CLOUDY    33  22  63 S12       30.10F WCI  24
$$

NOTE: "FAIR" INDICATES FEW OR NO CLOUDS BELOW 12,000 FEET WITH NO
SIGNIFICANT WEATHER AND/OR OBSTRUCTIONS TO VISIBILITY. WIND
SPEEDS ARE IN MILES-PER-HOUR.




USA.gov is the U.S. government's official web portal to all federal, state and local government web resources and services.